This is the latest recevied weather packets stored in our database for station/object YO6LRV-3. If no packets are shown the sender has not sent any weather packets the latest 10 day(s).
| Time | Temp. | Humidity | Pressure | Rain* | Wind** | Luminosity | Snow |
|---|---|---|---|---|---|---|---|
| 1788458251 | 22.78° C | 51% | 1017.7 hPa | - | - | - | - |
| 1788457351 | 22.78° C | 50% | 1017.5 hPa | - | - | - | - |
| 1788456450 | 22.78° C | 46% | 1017.4 hPa | - | - | - | - |
| 1788455550 | 22.78° C | 51% | 1017.4 hPa | - | - | - | - |
| 1788454650 | 23.33° C | 50% | 1017.3 hPa | - | - | - | - |
| 1788453750 | 23.33° C | 50% | 1017.4 hPa | - | - | - | - |
| 1788452850 | 23.33° C | 50% | 1017.4 hPa | - | - | - | - |
| 1788451950 | 23.89° C | 48% | 1017.4 hPa | - | - | - | - |
| 1788451050 | 23.89° C | 44% | 1017.3 hPa | - | - | - | - |
| 1788450149 | 24.44° C | 46% | 1017.5 hPa | - | - | - | - |
| 1788426748 | 20° C | 62% | 1020.3 hPa | - | - | - | - |
| 1788425848 | 19.44° C | 64% | 1020.4 hPa | - | - | - | - |
| 1788406948 | 16.67° C | 61% | 1019.8 hPa | - | - | - | - |
| 1788406048 | 16.67° C | 61% | 1019.7 hPa | - | - | - | - |
| 1788405147 | 16.67° C | 61% | 1019.7 hPa | - | - | - | - |
| 1788404247 | 16.67° C | 60% | 1019.7 hPa | - | - | - | - |
| 1788403347 | 17.22° C | 59% | 1019.7 hPa | - | - | - | - |
| 1788402447 | 17.22° C | 61% | 1019.7 hPa | - | - | - | - |
| 1788400647 | 17.22° C | 59% | 1019.7 hPa | - | - | - | - |
| 1788399747 | 17.22° C | 59% | 1019.6 hPa | - | - | - | - |
| 1788398847 | 17.22° C | 62% | 1019.5 hPa | - | - | - | - |
| 1788397949 | 17.78° C | 61% | 1019.5 hPa | - | - | - | - |
| 1788397051 | 17.78° C | 60% | 1019.6 hPa | - | - | - | - |
| 1788392548 | 18.33° C | 56% | 1019.5 hPa | - | - | - | - |
| 1788391648 | 18.33° C | 55% | 1019.7 hPa | - | - | - | - |
* Rain since midnight (hover to see other rain measurements)
** Current wind speed in m/s (hover to see current wind gust speed)